HST
1 20580U 90037B   25014.35436617  .00008194  00000-0  33598-3 0  9994
2 20580  28.4699   5.5893 0002630 188.0640 171.9912 15.22402280709195
ISS (ZARYA)
1 25544U 98067A   25015.13687281  .00015162  00000-0  27291-3 0  9998
2 25544  51.6394 345.1673 0002338  98.9982 351.9829 15.50022714491424
CXO
1 25867U 99040B   25016.05980701  .00000523  00000-0  00000+0 0  9993
2 25867  46.1059 137.7232 8643297 306.3123   0.1935  0.37803765 26529